PST,Max TemperatureF,Mean TemperatureF,Min TemperatureF,Max Dew PointF,MeanDew PointF,Min DewpointF,Max Humidity, Mean Humidity, Min Humidity, Max Sea Level PressureIn, Mean Sea Level PressureIn, Min Sea Level PressureIn, Max VisibilityMiles, Mean VisibilityMiles, Min VisibilityMiles, Max Wind SpeedMPH, Mean Wind SpeedMPH, Max Gust SpeedMPH,PrecipitationIn, CloudCover, Events, WindDirDegrees
2012-12-1,68,50,33,36,32,27,78,52,24,29.92,29.82,29.73,10,10,10,22,10,30,0.00,4,,184
2012-12-2,60,45,28,43,34,22,79,57,38,30.00,29.77,29.58,10,9,3,36,16,54,0.00,3,Rain,213
2012-12-3,54,39,24,31,27,21,88,66,37,30.14,30.06,29.99,10,10,10,7,3,,0.00,5,,128
2012-12-4,63,52,41,38,34,29,73,55,37,30.21,30.07,30.02,10,10,10,12,5,,0.00,6,,137
2012-12-5,52,46,39,48,43,32,100,90,68,30.20,30.07,30.02,10,7,0,12,4,,0.22,7,Fog-Rain,162
2012-12-6,49,42,35,46,41,36,100,97,83,30.13,30.04,29.94,10,2,0,7,2,,0.01,5,Fog,225
2012-12-7,59,31,3,37,30,-6,81,65,36,30.19,30.08,29.97,10,4,0,6,4,,0.00,5,Fog,157
2012-12-8,52,44,37,27,24,22,66,43,30,30.11,30.00,29.96,10,10,10,4,1,,0.00,6,,-1
2012-12-9,47,44,41,20,19,18,44,37,32,30.37,30.21,30.09,10,10,10,6,5,,0.00,3,,-1
2012-12-10,49,32,15,31,26,12,94,68,41,30.35,30.18,30.07,10,10,10,4,0,,0.00,4,,-1
2012-12-11,56,40,24,34,21,11,92,44,18,30.07,29.79,29.62,10,10,10,12,4,,0.00,4,,195
2012-12-12,46,40,34,36,29,20,100,68,45,29.77,29.68,29.63,10,10,10,9,6,,0.00,7,Rain-Snow,18
2012-12-13,38,34,30,34,29,19,99,84,60,29.85,29.76,29.72,10,8,1,7,2,,0.04,6,Snow,307
2012-12-14,42,36,29,32,27,18,100,75,42,29.90,29.75,29.67,10,8,2,12,3,,0.00,7,Snow,276
2012-12-15,40,32,24,29,25,22,99,73,52,29.93,29.85,29.80,10,8,1,9,2,,0.00,6,,158
2012-12-16,46,44,41,31,26,24,56,48,44,29.97,29.84,29.75,10,10,10,12,10,,0.00,7,,162
2012-12-17,58,46,34,31,27,24,70,50,29,29.83,29.78,29.74,10,10,9,17,9,21,0.00,5,Snow,270
2012-12-18,38,30,23,27,19,10,86,63,32,29.97,29.83,29.75,10,10,8,14,5,18,0.00,6,Snow,330
2012-12-19,35,24,14,14,10,1,73,49,28,30.21,30.09,29.98,10,10,10,12,4,,0.00,4,,161
2012-12-20,45,36,28,9,6,3,37,28,20,30.12,29.97,29.88,10,10,10,18,12,23,0.00,3,,158
2012-12-21,51,44,36,12,7,1,35,23,15,29.92,29.83,29.78,10,10,10,25,10,36,0.00,6,,156
2012-12-22,46,42,34,36,26,10,93,62,31,29.84,29.78,29.73,10,10,10,24,15,32,0.01,7,Rain,223
2012-12-23,50,46,43,38,31,26,82,57,39,29.78,29.74,29.71,10,10,10,24,15,29,0.04,7,Rain,187
2012-12-24,41,31,19,30,19,14,89,59,35,30.07,30.02,29.92,10,10,10,13,9,,0.00,3,,342
2012-12-25,,,,,,,,,,,,,,,,,,,,,,
2012-12-26,39,30,21,28,25,19,92,75,53,29.86,29.77,29.68,10,10,10,9,4,,0.00,7,,266
2012-12-27,39,26,14,27,21,12,92,77,49,30.06,29.96,29.86,10,10,9,9,4,,0.00,6,,12
2012-12-28,32,22,12,22,13,5,92,79,64,30.17,30.09,29.99,10,4,0,8,2,,0.00,6,Fog,34
2012-12-29,34,26,19,23,21,17,93,80,64,30.09,29.97,29.91,10,9,4,8,2,,0.00,8,Snow,19
2012-12-30,28,20,12,25,21,9,93,86,72,30.11,30.00,29.91,10,5,1,13,4,,0.07,6,Snow,356
2012-12-31,28,16,5,17,10,1,92,82,61,30.29,30.18,30.11,10,10,7,8,2,,0.00,4,,119